Hourly Data Report for October 02, 2016

All times are specified in Local Standard Time (LST). Add 1 hour to adjust for Daylight Saving Time where and when it is observed.

EUREKA CLIMATE
NUNAVUT

79°59'21.000" N
85°56'02.000" W
10.00 m
2401199
71613
NEK

Download Data

Hourly Data (October 2016)
Hourly Data Report for October 2, 2016
Temp Definition
°C
Dew Point Temp Definition
°C
Rel Hum Definition
%
Wind Dir Definition
10's deg

Wind Spd Definition
km/h
Visibility Definition
km
Stn Press Definition
kPa
Hmdx Definition


Wind Chill Definition


Weather Definition


TIME
00:00 -8.9 -9.6 95 2 9   100.84   -14 LegendNANA
01:00 -9.7 -10.5 94 2 11   100.80   -15 LegendNANA
02:00 -10.3 -11.2 94 2 12   100.77   -16 LegendNANA
03:00 -11.9 -12.8 94 3 7   100.74   -16 LegendNANA
04:00 -11.6 -12.3 94 4 9   100.70   -17 LegendNANA
05:00 -9.6 -10.1 96 5 5   100.65   -12 LegendNANA
06:00 -9.4 -10.0 96 11 2   100.62   -11 LegendNANA
07:00 -9.0 -9.5 96 19 2   100.61   -10 LegendNANA
08:00 -9.5 -10.1 96 3 1   100.60   -10 LegendNANA
09:00 -10.0 -10.5 96 13 3   100.58   -12 LegendNANA
10:00 -7.7 -9.1 90 2 25   100.56   -16 LegendNANA
11:00 -8.3 -9.7 89 3 20   100.59   -16 LegendNANA
12:00 -8.7 -10.1 90 2 18   100.58   -16 LegendNANA
13:00 -8.3 -10.1 87 1 25   100.60   -17 LegendNANA
14:00 -8.2 -9.7 89 36 23   100.62   -16 LegendNANA
15:00 -8.9 -10.5 88 36 20   100.65   -16 LegendNANA
16:00 -9.7 -10.9 91 35 17   100.68   -17 LegendNANA
17:00 -10.4 -11.9 88 34 13   100.66   -17 LegendNANA
18:00 -10.7 -12.3 88 2 11   100.66   -16 LegendNANA
19:00 -10.0 -11.2 91 7 6   100.63   -14 LegendNANA
20:00 -8.4 -9.0 95 29 6   100.65   -12 LegendNANA
21:00 -7.6 -8.2 95 30 14   100.63   -14 LegendNANA
22:00 -7.3 -8.1 94 29 13   100.61   -13 LegendNANA
23:00 -7.2 -8.1 94 29 10   100.59   -12 LegendNANA

Notes on Data Quality.

Legend

  • E = Estimated
  • M = Missing
  • NA = Not Available
  • ‡ = Partner data that is not subject to review by the National Climate Archives
Date modified: